STARLINK-35465, 65871

Orbit data source: Space-Track

STARLINK-35465, 65871 is a payload satellite owned by SpaceX/Seattle (US) in LEO that was launched on Fri, 03 Oct 2025 UTC via an FALCON 9 launch vehicle from the Air Force Western Test Range (AFWTR). Payload-class satellites include a variety of spacecraft equipped with specific instruments for various scientific and technological missions. These include communications satellites like Starlink; space stations such as the ISS; scientific satellites like the Hubble; Earth observation satellites from companies like Planet Labs, Umbra, and HawkEye 360; GPS; miniature CubeSats for education and research; and military/defense satellites.

Loading next visibility...
Identifier
65871, 2025-223T
Orbit
LEO
Country
Flag of USUS
Related business
Manufacturer
SpaceX/Seattle
Mission
Operational spacecraft
Bus & Motor
STARLINK V2MO, Unknown motor
Mass
575 kg wet, ~530 kg dry
Launch date (UTC)
2025-10-03 (2 weeks ago)
Launch vehicle
FALCON 9
Launch site
Air Force Western Test Range (AFWTR)
Object type
Payload
Rocket body
Debris
Shape & HBR
Unknown
Radar Cross Section
RCS unknown

Expand to show TLE details & history
Last TLE update: 8 hours ago

TLE from 8 hours ago
0 STARLINK-35465
1 65871U 25223T   25291.14346485 -.01225023  00000-0 -11256-1 0  9998
2 65871  53.1561 240.3717 0001618 184.8917 175.2085 15.69664270  2329
Epoch: 2025-10-18T03:26Z
TLE epoch observation values (Epoch: 2025-10-18T03:26:35.363Z)
Latitude
-0.00002°
Longitude
161.84563°
Altitude
361.859 km
Speed
7.693 km/s
True Right ascension
16h 01m 29s
True Declination
0° 00' 00"
Sunlit
Object was in daylight at epoch
Visualization orbit readout
Latitude
Unknown
Longitude
Unknown
Altitude
Unknown
Speed
Unknown
Apparent Right ascension
Unknown
Apparent Declination
Unknown
Sunlit
N/A
Visualization observer readout
Local Sidereal Time
05:49:37
Azimuth
Unknown
Elevation
Unknown
Doppler factor
Unknown
Orbital elements
Apogee altitude
361.209 km
Perigee altitude
359.029 km
Semi-major axis
6,738.256 km
Eccentricity
0.00016
Inclination
53.1561°
RAAN
240.3717°
Arg. of periapsis
184.8917°
True anomaly
175.21005°
Mean anomaly
175.2085°
Eccentric anomaly
175.20927°
Mean motion
3.92394 °/min
Orbital period
91.74 mins
BSTAR
-0.011256
Loading maneuver chart data...
Computing Atmospheric mass density...
Loading historical data...
Loading historical data...
Loading historical data...
Loading historical data...
Loading historical data...
Loading historical data...
Loading historical data...

Documentation

Showing up to 5 results
|